Location: *
(51.8167°N, 12.5000°E)
Time: 06:42:19
(UTC+00:00)

Resurs 01 Rocket - Pass Details

Date: 16 September 2019
Orbit: 635 x 644 km, 98.0° (Epoch: 15 October)

Event Time Altitude Azimuth Distance (km) Brightness Sun altitude
Exits shadow 19:55:57 27° 204° (SSW) 1,242 2.9 -22.6°
Maximum altitude 19:58:00 46° 261° (W) 872 2.5 -22.9°
Drops below altitude 10° 20:02:18 10° 335° (NNW) 2,049 5.1 -23.4°
Sets 20:04:36 0° 342° (NNW) 2,965 6.0 -23.7°
